Preview of NWS' New Version of Forecast
This preview is not operational and should not be used for support decisions.

Regional Weather Roundup (RWR)

Issued by National Weather Service (NWS)

                            
000
ASUS46 KPQR 200210
RWROR 

OREGON REGIONAL WEATHER ROUNDUP
NATIONAL WEATHER SERVICE PORTLAND OR
600 PM PST TUE FEB 19 2019

NOTE: "FAIR" INDICATES FEW OR NO CLOUDS BELOW 12,000 FEET WITH
NO SIGNIFICANT WEATHER AND/OR OBSTRUCTIONS TO VISIBILITY.

ORZ001>013-200300-
NORTHWEST OREGON

  
CITY           SKY/WX    TMP DP  RH WIND       PRES   REMARKS
ASTORIA        LGT RAIN  44  42  93 W9        29.99F FOG              
TILLAMOOK      LGT RAIN  45  41  87 SW6G17    30.06F                  
NEWPORT        CLOUDY    45  41  87 W13G26    30.12F                  
PORTLAND       LGT RAIN  44  38  79 SW15      30.03F                  
VANCOUVER WA   CLOUDY    43  38  82 SW6       30.03F                  
SCAPPOOSE      LGT RAIN  45  39  79 S3        30.01F                  
HILLSBORO      CLOUDY    44  37  76 S9        30.03F                  
AURORA         CLOUDY    42  39  89 SW7       30.06F                  
MCMINNVILLE    CLOUDY    43  38  82 S8        30.05F                  
SALEM          CLOUDY    43  38  82 S14       30.06F                  
CORVALLIS      LGT RAIN  42  39  89 S8        30.10F                  
EUGENE         CLOUDY    42  37  82 S12       30.12F                  
$$

ORZ021-028-200300-
SOUTHWEST OREGON

  
CITY           SKY/WX    TMP DP  RH WIND       PRES   REMARKS
NORTH BEND     LGT RAIN  44  42  93 S6        30.19F                  
BROOKINGS      CLOUDY    44  38  79 NW3       30.22S                  
ROSEBURG       CLOUDY    45  35  68 SW5       30.16F                  
SEXTON SUMMIT  CLOUDY    28  24  85 SW7       30.05F                  
GRANTS PASS    CLOUDY    39  32  75 CALM      30.18                   
MEDFORD        CLOUDY    41  26  55 NW3       30.15F                  
$$

ORZ014>016-041-200300-
COLUMBIA GORGE

  
CITY           SKY/WX    TMP DP  RH WIND       PRES   REMARKS
TROUTDALE      LGT RAIN  43  38  82 SW14      30.03F                  
HOOD RIVER     CLOUDY    37  34  87 W9        29.96F                  
THE DALLES     CLOUDY    39  32  76 NW12      29.97F WCI  32          
$$

ORZ029>031-041-044-049-050-061>064-502-503-505>511-200300-
EASTERN OREGON

  
CITY           SKY/WX    TMP DP  RH WIND       PRES   REMARKS
MADRAS         NOT AVBL                                               
REDMOND        CLOUDY    37  23  56 NW13      29.95F WCI  29          
BEND           CLOUDY    36  23  60 S6        29.95F                  
PRINEVILLE     CLOUDY    34  25  69 W12       29.95  WCI  25          
KLAMATH FALLS  CLOUDY    31  22  69 NW18G26   30.01R WCI  19          
LAKEVIEW       CLOUDY    25  17  72 S13       29.97F WCI  14          
HERMISTON      LGT RAIN  37  31  78 W7        29.94F                  
PENDLETON      LGT SNOW  35  32  88 SW10      29.92F FOG     WCI  27  
JOHN DAY       CLOUDY    30  29  96 SW3       29.91                   
MEACHAM        SNOW      28  24  85 MISG      29.84F VSB 1/2          
LA GRANDE      FLURRIES  30  28  92 SE9       29.90F                  
BAKER CITY     CLOUDY    31  24  75 CALM      29.88F                  
BURNS          CLOUDY    29  22  75 W8        29.91S                  
ROME             N/A     31  20  63 W6        29.91S                  
ONTARIO        CLOUDY    33  26  75 E3        29.97F                  
$$